Change the Weather History Date:

Saturday, May 11, 2013

  Actual Average Record
Temperature  
Mean Temperature 78 °F -  
Max Temperature 89 °F 82 °F 94 °F (1943)
Min Temperature 68 °F 67 °F 52 °F (1981)
Cooling Degree Days 12    
Growing Degree Days 28 (Base 50)    
Moisture  
Dew Point 64 °F    
Average Humidity 69    
Maximum Humidity 93    
Minimum Humidity 43    
Precipitation  
Precipitation 0.00 in - - ()
Sea Level Pressure  
Sea Level Pressure 30.01 in    
Wind  
Wind Speed 9 mph (North)    
Max Wind Speed 15 mph    
Max Gust Speed 17 mph    
Visibility 10 miles    
Events Rain    
Averages and records for this station are not official NWS values.
T = Trace of Precipitation, MM = Missing Value Source: NWS Daily Summary

Daily Weather History Graph

Daily Weather History Graph

Search for Another Location

Airport or City:

Trip Planner

Search our weather history database for the weather conditions in past years. The results will help you decide how hot, cold, wet, or windy it might be!

Date:

Astronomy

May. 11, 2013 Rise Set
Actual Time 6:36 AM CDT 8:06 PM CDT
Civil Twilight 6:10 AM CDT 8:32 PM CDT
Nautical Twilight 5:40 AM CDT 9:03 PM CDT
Astronomical Twilight 5:08 AM CDT 9:34 PM CDT
Moon 7:47 AM CDT (5/11) 9:45 PM CDT (5/11)
Length of Visible Light 14h 21m
Length of Day
13h 30m
Waxing Crescent, 3% of the Moon is Illuminated
May 11
Waxing Crescent
May 17
First Quarter
May 24
Full
May 31
Last Quarter
Jun 8
New

Hourly Weather History & Observations

Time (CDT) Temp. Heat Index Dew Point Humidity Pressure Visibility Wind Dir Wind Speed Gust Speed Precip Events Conditions
12:53 AM 72.0 °F - 64.9 °F 78% 29.97 in 10.0 mi NE 10.4 mph - N/A   Partly Cloudy
1:53 AM 71.1 °F - 64.0 °F 78% 29.96 in 10.0 mi NNE 9.2 mph - N/A   Clear
2:53 AM 69.1 °F - 64.0 °F 84% 29.96 in 10.0 mi WNW 3.5 mph - N/A   Clear
3:53 AM 69.1 °F - 64.9 °F 87% 29.97 in 10.0 mi NNW 6.9 mph - N/A   Clear
4:53 AM 69.1 °F - 66.0 °F 90% 29.99 in 10.0 mi NW 5.8 mph - 0.00 in Rain Light Rain
5:53 AM 68.0 °F - 66.0 °F 93% 30.00 in 10.0 mi North 5.8 mph - 0.00 in Rain Light Rain
6:53 AM 68.0 °F - 64.9 °F 90% 30.01 in 10.0 mi NNE 9.2 mph - 0.00 in   Scattered Clouds
7:53 AM 68.0 °F - 64.9 °F 90% 29.99 in 10.0 mi NNE 8.1 mph - N/A   Clear
8:53 AM 69.1 °F - 64.9 °F 87% 30.03 in 10.0 mi North 11.5 mph - N/A   Partly Cloudy
9:53 AM 75.0 °F - 64.9 °F 71% 30.03 in 10.0 mi North 15.0 mph - N/A   Clear
10:53 AM 78.1 °F - 66.9 °F 68% 30.04 in 10.0 mi NNE 11.5 mph - N/A   Clear
11:53 AM 82.0 °F 84.5 °F 66.9 °F 60% 30.03 in 10.0 mi North 12.7 mph - N/A   Clear
12:53 PM 84.9 °F 86.6 °F 64.9 °F 51% 30.01 in 10.0 mi NNE 12.7 mph 17.3 mph N/A   Clear
1:53 PM 86.0 °F 87.6 °F 64.9 °F 49% 30.01 in 10.0 mi North 11.5 mph 17.3 mph N/A   Partly Cloudy
2:53 PM 86.0 °F 87.6 °F 64.9 °F 49% 30.00 in 10.0 mi North 10.4 mph - N/A   Partly Cloudy
3:53 PM 87.1 °F 88.3 °F 64.0 °F 46% 29.98 in 10.0 mi NNE 15.0 mph - N/A   Clear
4:53 PM 87.1 °F 87.5 °F 62.1 °F 43% 29.99 in 10.0 mi NNE 12.7 mph - N/A   Clear
5:53 PM 86.0 °F 87.3 °F 64.0 °F 48% 29.98 in 10.0 mi NNE 13.8 mph - N/A   Partly Cloudy
6:53 PM 84.0 °F 85.8 °F 64.9 °F 53% 29.98 in 10.0 mi NNE 10.4 mph - N/A   Clear
7:53 PM 80.1 °F 81.5 °F 63.0 °F 56% 30.01 in 10.0 mi North 10.4 mph - N/A   Clear
8:53 PM 73.4 °F - 64.4 °F 73% 30.04 in 10.0 mi North 6.9 mph - N/A   Clear
9:53 PM 75.0 °F - 63.0 °F 66% 30.06 in 10.0 mi North 8.1 mph - N/A   Clear
10:53 PM 71.6 °F - 60.8 °F 69% 30.08 in 10.0 mi North 8.1 mph - N/A   Clear
11:53 PM 69.1 °F - 60.1 °F 73% 30.09 in 10.0 mi North 8.1 mph - N/A   Clear